Погода в Тайынше

Казахстан     53°51′09″N   69°46′57″E
В апреле 2022 года жителям России запретили посещать сайт meteo.paraplan.net по решению Генеральной прокуратуры. Аудитория сайта уменьшилась в 10 раз. Владельцы сайта не видят смысла в поддержке погодного сервера в таких условиях. Сайт будет закрыт в октябре.
темп.,
°C
ветер,
м/с
пор.,
м/с
влажн.,
%
обл.,
%
осадки,
мм/ч
давл.,
гПа
погр.,
м
25 сентября, вс
вс2500:00+20юз223798 0.0 101211
03:00+20ююз4536100 0.0 101061
06:00+18юз3439100 0.0 101044
09:00+20зюз39335 0.0 1009244
12:00+27з6820100 0.0 1008826
15:00+27сз6723100 0.0 1008984
18:00+24ссв453189 0.1 1008305
21:00+17всв71156100 0.0 1010495
26 сентября, пн
пн2600:00+13всв71168100 0.0 1011454
03:00+10всв71272100 0.0 1010412
06:00+10всв71072100 0.0 1010467
09:00+8в81282100 0.8 1008440
12:00+8вюв71287100 4.2 1007560
15:00+10вюв61084100 1.3 1006434
18:00+12св44789 1.4 1006220
21:00+7в469067 0.0 1007193
27 сентября, вт
вт2700:00+7вюв3490100 0.1 1008147
03:00+9юз387995 0.2 1006515
06:00+6з71283100 1.0 1007918
09:00+4з91395100 1.9 1007717
12:00+4сз5794100 2.1 1009594
15:00+3ссз5786100 0.1 1013804
18:00+3с6887100 0.1 1015695
21:00+2с4693100 0.1 1017485
28 сентября, ср
ср2800:00+2с468892 0.4 1018524
03:00+1ссз368485 0.0 1018167
06:000ссз358275 0.0 1019131
09:00+1ссз347165 0.0 1020331
12:00+4ссз4452100 0.0 10211383
15:00+5сз4449100 0.1 10211360
18:00+4ссз4553100 0.1 10211188
21:00+2с4563100 0.0 1022824
29 сентября, чт
чт2900:00+1сз356999 0.1 1022690
03:00−1ссз367943 0.0 1023199
06:00−2сз47925 0.0 1024229
09:00−1ссз57808 0.0 1025441
12:00+1ссз5662100 0.1 10261247
15:00+1ссз6665100 0.1 10271202
18:00+1с6765100 0.1 10281037
21:000ссз4774100 0.0 1030563